Temp
82 83 83 85 84 85 85 84 84 83 83 84 84 83 84 84 84 81 80 75 75 76 76 76 75 74 73 72 72 71 71 70 70 70 69 69 69 69 69 70 70 70 69
81 83 83 83 83 84 85 85 84 83 83 84 84 82 82 83 84 81 79 77 75 75 76 76 75 75 74 73 72 71 70 70 70 69 69 69 69 68 69 69 69 69 69
80 81 82 82 83 83 83 83 81 82 82 83 82 83 84 83 84 82 79 77 80 74 75 76 76 75 75 74 73 71 70 69 69 69 69 69 68 68 68 68 68 69 69
80 79 81 81 83 81 82 82 81 81 81 81 82 83 83 82 83 80 81 80 79 82 76 75 76 76 75 75 74 73 71 69 69 68 68 68 68 68 67 67 68 68 68
81 80 81 82 81 82 82 81 80 80 79 80 81 82 82 82 81 81 79 79 78 79 80 76 74 75 75 75 75 74 72 70 69 68 68 68 68 67 67 67 67 67 67
80 79 81 81 81 82 81 80 78 79 80 81 83 82 81 82 82 80 79 79 78 78 80 79 80 79 74 75 75 75 74 71 69 68 67 67 67 67 67 67 67 67 67
80 78 81 80 80 80 80 78 78 77 78 80 80 79 80 80 77 73 77 78 78 79 79 79 79 80 79 73 74 74 74 72 67 67 67 67 67 67 66 66 66 66 66
79 79 78 79 78 80 78 78 77 76 80 79 80 79 77 78 81 76 72 72 73 79 79 79 78 77 78 79 75 73 73 72 67 67 67 67 67 66 66 65 65 66 65
78 78 78 79 78 78 80 78 78 76 76 77 76 80 74 75 78 80 78 79 76 76 80 79 78 77 76 77 75 71 69 69 68 63 64 67 66 66 65 65 65 65 65
79 78 78 78 76 80 79 79 80 79 78 77 77 78 77 78 76 75 78 79 80 78 78 81 79 76 74 75 73 70 68 68 67 63 61 66 65 65 64 64 64 65 64
79 79 78 77 77 79 78 78 77 77 80 80 80 77 75 77 75 76 74 78 80 82 82 79 74 73 73 73 73 70 67 66 65 61 59 64 64 63 63 63 63 64 64
79 78 79 78 77 78 78 79 78 78 79 79 80 79 80 78 75 75 73 74 74 79 80 80 76 69 69 71 71 67 66 65 62 58 59 61 62 62 61 62 62 62 63
79 76 77 77 79 78 79 79 78 78 78 79 77 79 80 80 80 78 76 77 74 79 80 78 74 71 68 67 68 67 66 62 59 58 56 60 60 60 60 60 60 60 61
81 80 77 79 79 79 79 78 80 80 78 79 77 77 80 80 79 79 78 76 74 76 77 72 76 69 66 67 67 67 63 60 58 56 58 58 58 58 58 58 58 58 58
83 80 78 78 79 79 79 78 80 78 78 77 77 77 78 79 79 79 78 78 75 72 74 75 72 68 66 66 66 63 60 59 57 56 54 56 56 56 56 56 57 57 57
80 80 79 79 79 79 79 78 79 78 77 78 79 76 76 79 77 78 78 78 76 75 73 77 65 64 64 63 62 59 58 58 56 56 55 54 53 54 55 55 55 56 56
80 79 80 80 80 79 79 77 78 78 77 76 76 76 75 75 78 77 77 77 76 75 73 73 68 64 62 59 58 58 57 54 53 53 51 50 50 52 54 54 54 54 54
78 79 80 79 80 80 79 77 77 78 77 75 75 75 75 76 73 74 76 73 75 74 75 71 64 61 58 57 56 54 53 54 53 53 51 49 50 52 54 54 54 53 53
74 74 73 72 73 77 78 78 79 78 77 76 76 75 75 73 72 74 74 74 75 74 74 74 64 62 56 56 54 53 53 52 54 53 51 53 55 54 54 54 54 52 51
69 70 67 70 71 71 74 77 78 75 74 74 75 75 75 73 72 72 73 73 73 74 73 74 68 62 57 55 54 51 50 52 51 53 52 55 54 52 53 54 54 53 51
66 63 67 67 67 69 71 69 70 66 67 72 73 74 74 72 67 70 75 72 71 73 74 74 72 67 58 53 54 53 51 50 51 51 50 51 51 48 49 53 57 51 50
67 67 63 62 64 65 58 55 61 63 63 66 65 69 74 65 64 59 60 62 69 71 71 74 74 72 67 63 58 53 51 48 47 53 49 48 49 47 50 52 49 49 48
63 62 63 63 61 63 53 51 54 68 66 64 67 66 70 76 69 73 58 56 58 57 63 72 70 70 70 69 63 55 53 52 51 50 50 45 49 46 50 51 49 48 47
63 63 63 61 59 59 53 49 51 67 68 67 69 71 71 72 71 72 73 71 71 71 69 73 72 72 72 73 67 65 56 52 50 50 51 46 50 48 49 51 48 47 47
59 58 58 59 59 59 51 48 51 62 66 68 71 70 72 73 59 53 72 70 71 71 60 55 53 49 49 49 62 61 52 51 48 47 51 49 48 50 51 48 49 47 46
63 66 65 62 57 60 50 49 48 60 61 66 63 65 54 66 49 49 71 71 69 71 71 69 67 59 55 58 51 65 64 55 52 47 52 51 50 51 46 44 49 56 59
MSLP
1017.64 1017.73 1017.94 1018.15 1018.44 1018.72 1018.81 1019.03 1019.12 1019.13 1019.21 1019.28 1019.47 1019.56 1019.55 1019.52 1019.73 1020.13 1020.36 1020.67 1020.85 1021.09 1021.27 1021.49 1021.63 1021.78 1021.85 1022.01 1022.02 1022.06 1022.12 1022.00 1021.93 1021.80 1021.67 1021.37 1021.27 1021.03 1020.59 1020.35 1019.99 1019.68 1019.62
1017.37 1017.43 1017.67 1017.95 1018.27 1018.60 1018.56 1018.58 1018.79 1018.91 1019.07 1019.09 1019.13 1019.31 1019.38 1019.32 1019.35 1019.63 1019.93 1020.21 1020.51 1020.81 1020.92 1021.13 1021.34 1021.46 1021.59 1021.78 1021.87 1021.98 1022.02 1021.89 1021.87 1021.82 1021.74 1021.51 1021.16 1021.18 1020.52 1020.37 1020.04 1019.68 1019.59
1017.07 1017.30 1017.41 1017.59 1017.96 1018.30 1018.43 1018.46 1018.75 1018.83 1018.92 1018.95 1018.94 1018.88 1018.92 1018.99 1018.89 1019.06 1019.58 1020.01 1019.93 1020.34 1020.50 1020.59 1020.76 1021.08 1021.33 1021.52 1021.58 1021.75 1021.91 1021.89 1021.84 1021.75 1021.73 1021.55 1021.17 1021.11 1020.78 1020.44 1020.14 1019.75 1019.57
1016.76 1017.20 1017.24 1017.36 1017.72 1018.06 1018.08 1018.08 1018.44 1018.58 1018.67 1018.74 1018.52 1018.52 1018.52 1018.60 1018.56 1018.81 1019.04 1019.32 1019.54 1019.44 1020.07 1020.32 1020.56 1020.64 1020.86 1021.11 1021.39 1021.55 1021.69 1021.75 1021.78 1021.74 1021.67 1021.50 1021.25 1021.01 1020.83 1020.51 1020.20 1019.80 1019.58
1016.46 1016.76 1016.85 1016.98 1017.49 1017.55 1017.60 1017.90 1018.16 1018.30 1018.39 1018.40 1018.27 1018.30 1018.27 1018.22 1018.25 1018.46 1018.63 1018.93 1019.29 1019.38 1019.41 1019.73 1020.03 1020.27 1020.37 1020.63 1020.83 1020.95 1021.31 1021.49 1021.59 1021.59 1021.55 1021.49 1021.17 1021.00 1020.82 1020.55 1020.23 1019.86 1019.58
1016.03 1016.34 1016.49 1016.80 1017.13 1017.10 1017.32 1017.62 1017.87 1018.08 1018.08 1017.97 1017.76 1017.91 1018.13 1018.10 1018.20 1018.31 1018.38 1018.67 1018.90 1019.09 1019.12 1019.19 1019.33 1019.48 1019.88 1020.08 1020.22 1020.37 1020.64 1021.14 1021.24 1021.41 1021.41 1021.32 1021.16 1020.92 1020.89 1020.55 1020.28 1019.95 1019.66
1015.52 1015.96 1016.11 1016.47 1016.70 1016.92 1017.03 1017.33 1017.51 1017.76 1017.81 1017.89 1017.77 1017.74 1017.94 1018.10 1018.26 1018.47 1018.37 1018.36 1018.57 1018.61 1018.69 1018.84 1019.03 1019.05 1019.00 1019.48 1019.68 1019.92 1020.06 1020.59 1021.10 1021.22 1021.25 1021.17 1021.12 1021.07 1020.90 1020.54 1020.31 1019.97 1019.67
1015.11 1015.46 1015.77 1016.06 1016.48 1016.69 1017.00 1017.15 1017.28 1017.31 1017.47 1017.79 1017.39 1017.44 1017.18 1017.66 1017.76 1018.28 1018.55 1018.62 1018.65 1018.27 1018.18 1018.37 1018.46 1018.69 1018.81 1018.72 1019.16 1019.44 1019.74 1020.08 1020.91 1021.13 1021.21 1020.96 1021.07 1021.18 1020.97 1020.62 1020.31 1019.96 1019.71
1014.66 1015.12 1015.59 1015.79 1016.23 1016.50 1016.47 1016.80 1016.97 1017.05 1017.06 1017.67 1017.81 1017.27 1017.22 1016.94 1017.46 1017.72 1017.98 1018.14 1018.29 1018.29 1017.71 1017.85 1018.10 1018.29 1018.42 1018.60 1018.74 1019.14 1019.75 1020.08 1020.55 1021.14 1021.40 1021.08 1021.25 1021.17 1021.07 1020.80 1020.32 1019.99 1019.61
1014.11 1014.65 1015.07 1015.42 1015.82 1015.98 1016.12 1016.34 1016.62 1016.65 1016.78 1016.86 1017.58 1017.63 1017.48 1017.36 1017.07 1017.01 1017.57 1017.73 1017.84 1017.72 1017.59 1017.35 1017.54 1017.93 1018.22 1018.32 1018.58 1018.97 1019.43 1019.89 1020.41 1021.02 1021.33 1021.31 1021.29 1021.23 1021.18 1020.92 1020.43 1020.03 1019.66
1013.73 1014.26 1014.69 1015.07 1015.43 1015.66 1015.92 1016.08 1016.34 1016.58 1016.70 1016.63 1016.68 1017.06 1017.39 1017.54 1017.63 1017.25 1016.80 1017.06 1017.27 1017.33 1017.37 1017.44 1017.81 1018.02 1018.17 1018.31 1018.44 1018.82 1019.24 1019.69 1020.35 1021.12 1021.44 1021.43 1021.39 1021.43 1021.30 1021.01 1020.58 1020.18 1019.88
1013.36 1013.81 1014.09 1014.43 1014.81 1015.22 1015.54 1015.77 1016.08 1016.35 1016.44 1016.51 1016.52 1016.58 1016.61 1016.71 1017.01 1017.26 1017.21 1017.19 1017.14 1017.07 1017.25 1017.34 1017.65 1018.22 1018.33 1018.37 1018.44 1018.72 1019.11 1019.71 1020.48 1021.14 1021.51 1021.60 1021.64 1021.67 1021.56 1021.17 1020.81 1020.51 1020.29
1012.60 1013.06 1013.58 1013.94 1014.28 1014.66 1014.96 1015.30 1015.78 1016.00 1016.22 1016.22 1016.52 1016.48 1016.76 1016.71 1016.96 1017.10 1017.04 1016.85 1016.98 1016.99 1017.06 1017.50 1017.78 1018.17 1018.38 1018.50 1018.58 1018.71 1019.06 1019.81 1020.54 1021.22 1021.83 1021.80 1021.79 1021.92 1021.83 1021.52 1021.05 1020.86 1020.88
1011.59 1012.21 1012.81 1013.23 1013.66 1014.01 1014.49 1014.91 1015.34 1015.57 1015.82 1016.05 1016.37 1016.59 1016.59 1016.82 1017.05 1017.03 1016.92 1016.91 1016.72 1016.95 1017.13 1017.45 1017.92 1018.42 1018.63 1018.59 1018.69 1018.92 1019.52 1020.39 1020.92 1021.51 1021.80 1022.06 1022.20 1022.13 1022.11 1021.94 1021.58 1021.24 1021.23
1011.07 1011.78 1012.25 1012.54 1013.12 1013.63 1014.04 1014.51 1014.75 1015.13 1015.48 1015.84 1016.09 1016.42 1016.52 1016.74 1016.97 1017.04 1017.10 1017.10 1016.87 1016.48 1016.71 1017.37 1017.99 1018.75 1018.85 1018.86 1018.92 1019.39 1020.08 1020.90 1021.46 1022.00 1022.24 1022.37 1022.63 1022.59 1022.53 1022.29 1021.95 1021.76 1021.53
1010.59 1011.14 1011.66 1011.97 1012.36 1012.91 1013.54 1014.10 1014.33 1014.72 1015.06 1015.30 1015.54 1016.06 1016.37 1016.46 1016.78 1016.86 1016.89 1017.07 1017.22 1016.96 1016.78 1017.54 1018.72 1019.22 1019.20 1019.22 1019.50 1020.08 1020.71 1021.44 1021.99 1022.26 1022.32 1022.60 1022.90 1022.85 1022.80 1022.59 1022.33 1022.10 1021.80
1010.45 1010.71 1010.99 1011.23 1011.58 1012.12 1012.72 1013.19 1013.51 1013.93 1014.36 1014.75 1015.14 1015.50 1015.90 1016.29 1016.36 1016.57 1016.79 1016.93 1017.03 1017.19 1016.85 1017.58 1018.73 1019.44 1019.64 1019.97 1020.32 1020.69 1021.35 1021.78 1022.23 1022.53 1022.77 1022.94 1023.00 1022.93 1022.85 1022.79 1022.59 1022.43 1022.05
1010.01 1010.28 1010.65 1011.11 1011.50 1011.36 1011.92 1012.34 1012.65 1013.14 1013.64 1014.11 1014.53 1014.80 1015.26 1015.84 1016.17 1016.48 1016.54 1016.75 1016.68 1017.16 1016.99 1017.38 1018.74 1019.56 1020.03 1020.65 1020.88 1021.30 1021.72 1022.15 1022.47 1022.83 1023.10 1023.23 1023.22 1022.77 1022.85 1022.79 1022.65 1022.65 1022.28
1010.02 1010.14 1010.53 1010.58 1010.90 1011.53 1011.39 1011.33 1011.74 1012.18 1012.73 1013.22 1013.74 1014.17 1014.49 1015.19 1015.75 1016.07 1016.19 1016.42 1016.56 1016.96 1017.04 1017.29 1018.33 1019.47 1020.35 1020.81 1021.37 1021.71 1022.06 1022.43 1022.60 1022.91 1023.18 1023.19 1023.01 1022.84 1022.73 1022.87 1022.73 1022.69 1022.41
1010.53 1010.05 1010.34 1010.20 1010.09 1011.00 1011.13 1011.33 1011.36 1011.39 1011.77 1012.40 1012.78 1013.57 1014.13 1014.57 1014.95 1015.69 1015.97 1016.27 1016.55 1016.74 1016.96 1017.15 1017.96 1018.99 1019.89 1020.58 1021.08 1021.59 1022.14 1022.40 1022.61 1022.81 1023.20 1023.14 1023.08 1023.03 1022.92 1022.90 1022.93 1022.67 1022.60
1010.67 1010.62 1009.89 1009.98 1009.84 1010.67 1010.97 1010.80 1010.80 1011.55 1011.98 1011.09 1012.25 1012.62 1013.58 1013.94 1014.49 1015.04 1015.41 1015.98 1016.35 1016.46 1016.65 1016.78 1017.02 1018.04 1019.12 1019.93 1020.43 1021.04 1021.47 1022.04 1022.44 1022.69 1023.06 1023.15 1023.31 1023.53 1023.44 1022.88 1022.84 1022.89 1022.78
1011.03 1010.67 1010.67 1011.22 1011.02 1010.79 1010.82 1010.97 1011.30 1011.86 1011.35 1012.05 1011.57 1012.39 1012.88 1013.64 1014.16 1014.70 1015.18 1015.62 1015.96 1016.11 1016.29 1016.28 1016.44 1016.73 1017.53 1018.46 1019.42 1020.31 1020.98 1021.74 1022.21 1022.28 1022.73 1023.16 1023.29 1023.63 1023.51 1023.28 1023.39 1023.32 1023.14
1010.83 1011.11 1010.42 1010.36 1011.04 1010.87 1011.30 1011.32 1010.97 1010.75 1011.54 1011.03 1011.06 1011.82 1012.37 1012.82 1013.48 1014.31 1015.02 1015.58 1015.89 1015.99 1016.02 1016.07 1016.15 1016.36 1016.58 1017.20 1018.32 1019.31 1020.06 1020.60 1020.90 1021.64 1022.15 1022.88 1023.31 1023.42 1023.61 1023.77 1023.51 1023.50 1023.49
1010.22 1010.18 1010.03 1010.29 1010.55 1010.21 1010.94 1010.99 1011.07 1010.61 1011.01 1010.37 1010.53 1011.04 1011.56 1012.17 1012.90 1013.55 1014.35 1015.10 1015.34 1015.56 1015.79 1015.85 1015.85 1016.06 1016.49 1016.41 1017.34 1017.98 1019.06 1020.29 1020.94 1021.51 1021.77 1022.24 1022.86 1023.11 1023.50 1023.79 1023.67 1023.77 1023.71
1009.80 1009.66 1009.55 1009.81 1009.96 1010.30 1010.00 1010.89 1011.39 1010.36 1010.00 1009.96 1010.23 1010.56 1011.25 1011.62 1012.41 1013.39 1013.72 1014.17 1014.59 1014.89 1015.38 1015.83 1016.12 1016.64 1016.89 1017.02 1016.89 1018.15 1019.01 1019.72 1020.43 1021.01 1021.55 1021.68 1022.40 1022.70 1023.25 1023.66 1023.76 1023.93 1023.81
1009.12 1008.55 1008.44 1008.81 1009.03 1009.37 1009.42 1009.73 1010.73 1009.79 1009.80 1009.69 1010.22 1010.68 1011.32 1011.81 1012.22 1013.27 1013.36 1013.68 1013.90 1014.05 1014.54 1015.20 1016.11 1016.25 1016.72 1016.83 1017.29 1017.10 1017.65 1018.45 1019.22 1020.14 1020.57 1021.28 1021.86 1022.24 1023.02 1023.56 1023.44 1023.17 1023.08
Wind_Speed
6 6 5 4 4 4 4 5 4 4 5 6 6 6 6 6 6 4 5 12 14 13 12 12 11 10 9 7 5 3 2 4 6 7 8 9 10 10 11 11 11 11 12
6 6 5 5 5 5 5 5 4 4 5 5 6 6 7 6 7 8 6 6 14 13 14 14 13 12 11 9 7 4 2 3 5 7 9 10 11 10 11 11 12 12 12
8 7 6 5 5 5 6 4 5 4 5 6 7 6 6 8 9 8 6 6 9 16 15 15 15 14 13 11 10 7 4 2 4 6 8 10 11 11 10 11 12 12 12
9 8 6 5 5 4 5 5 5 5 5 5 5 6 6 6 7 6 6 6 8 7 14 17 15 15 14 14 12 10 6 3 2 4 7 9 10 11 11 11 12 12 12
10 8 7 6 7 5 6 5 5 6 5 6 6 6 6 5 4 4 5 6 8 8 7 12 15 16 16 16 15 13 10 6 2 3 6 8 11 10 11 11 12 12 12
10 8 7 7 6 5 5 5 7 6 5 4 5 4 3 3 2 3 4 4 6 9 9 10 8 11 17 18 17 15 13 9 6 1 4 7 9 11 11 11 12 12 12
9 9 7 7 7 6 5 6 5 7 4 4 4 4 3 2 3 2 3 3 5 7 8 9 7 7 8 18 16 15 13 13 7 3 3 6 9 11 10 11 11 11 12
10 9 9 8 8 7 8 7 7 4 3 4 3 2 2 3 2 1 3 3 5 4 7 9 9 10 10 8 10 15 14 11 8 2 2 7 10 9 10 10 10 11 11
10 10 11 9 7 7 7 9 8 7 5 4 4 2 3 2 1 1 2 3 3 4 5 6 8 9 10 9 10 9 12 10 11 5 4 7 8 9 10 9 10 10 11
11 11 10 10 9 8 7 8 7 6 5 6 4 2 2 2 1 2 3 2 2 4 4 4 5 6 7 6 7 11 15 12 12 8 1 5 7 9 9 9 10 10 12
10 11 11 10 10 8 8 8 8 7 6 6 4 4 3 3 2 2 4 1 3 1 2 3 3 3 4 4 4 8 13 12 14 10 7 4 7 9 9 9 10 11 11
7 10 11 10 10 9 10 9 9 9 7 5 4 4 4 3 4 3 3 3 4 2 4 2 3 0 2 3 4 9 13 14 16 12 6 7 8 9 8 9 10 12 12
8 11 13 12 10 11 11 10 9 9 8 6 6 4 4 3 3 3 3 2 3 2 1 3 4 1 2 2 3 7 15 18 16 12 9 5 8 8 8 9 10 12 12
11 10 13 12 12 12 11 10 8 8 7 7 8 6 5 4 4 4 3 3 3 1 1 4 4 4 1 1 2 8 11 16 16 13 9 10 8 8 7 8 10 11 11
10 11 13 13 13 12 13 12 9 9 8 7 7 7 6 5 5 4 4 3 3 3 2 3 2 5 2 1 0 8 10 15 15 13 12 7 11 7 6 6 8 8 9
12 11 13 14 14 14 14 13 10 10 10 8 7 8 7 5 5 5 4 4 4 4 3 1 3 3 4 3 9 9 10 14 15 12 13 12 10 8 5 6 8 8 8
12 12 13 14 15 15 15 14 13 12 12 11 9 10 9 8 6 6 5 4 5 4 4 3 2 3 4 6 6 8 8 8 7 12 12 11 6 6 5 6 7 7 8
11 12 11 10 14 15 15 16 16 15 15 14 14 12 11 8 9 7 6 6 5 5 3 1 3 2 4 4 6 8 6 6 6 9 11 7 3 4 5 7 6 7 7
9 8 8 10 8 13 14 18 18 18 17 17 15 14 13 12 10 8 7 7 5 4 4 3 3 2 2 3 4 5 6 6 5 10 8 3 4 8 9 9 8 7 7
5 2 4 7 7 10 13 16 17 17 16 15 16 14 13 13 12 11 9 9 7 5 4 4 4 3 2 3 3 3 4 3 5 5 3 5 7 7 8 7 11 10 8
8 8 8 7 6 9 9 13 13 8 10 14 15 13 13 14 12 12 9 10 9 6 5 3 3 4 4 3 5 4 3 4 3 3 4 2 3 2 3 4 8 10 10
5 3 6 7 7 6 8 9 9 13 8 15 11 12 13 12 12 12 9 11 11 9 6 4 3 3 5 5 6 6 5 4 3 6 5 3 3 1 0 2 9 10 10
9 8 5 2 4 7 9 11 13 11 16 13 13 11 11 11 13 13 10 7 8 7 5 6 4 4 4 7 8 9 9 5 4 5 5 4 4 3 1 2 7 9 10
9 9 11 9 6 2 10 8 11 14 14 14 14 14 13 13 15 15 13 13 12 11 10 7 6 4 4 3 10 7 8 5 5 5 4 3 5 3 3 2 7 8 8
8 8 7 11 11 9 6 7 10 9 10 11 11 10 12 13 13 13 13 13 12 10 6 6 2 2 2 4 7 8 7 7 3 4 7 3 4 4 4 3 4 6 7
10 8 9 10 9 11 9 8 9 4 7 8 5 6 7 11 12 14 12 12 11 10 10 9 8 6 7 6 12 11 8 9 4 3 7 6 7 5 3 0 4 5 4
Wind_Direction
209 209 210 212 217 211 217 211 214 222 222 228 228 232 239 234 235 202 211 205 203 209 201 196 193 191 187 184 171 141 85 59 48 41 32 30 21 14 8 2 1 4 3
211 217 216 216 220 218 220 222 214 218 242 245 230 230 239 242 237 225 226 208 212 208 212 207 204 203 201 200 187 173 145 75 45 34 26 25 26 14 15 6 4 1 359
208 224 226 224 220 219 235 232 226 222 232 231 234 226 234 234 237 234 216 214 211 205 216 215 213 209 210 212 203 188 173 108 50 39 24 19 24 17 12 8 6 3 357
212 215 226 226 226 229 230 232 230 220 232 237 232 234 242 243 248 234 222 215 214 219 206 221 226 216 217 218 218 208 190 155 63 35 29 19 19 19 12 10 5 4 360
210 215 224 227 223 228 231 222 228 232 221 230 232 240 251 256 252 226 224 215 218 225 221 215 226 226 219 226 226 213 198 180 151 46 31 20 19 15 14 10 6 4 4
205 205 216 220 217 229 227 210 221 208 236 230 228 206 234 241 231 237 233 219 226 225 228 236 225 226 223 229 229 224 202 188 164 63 30 25 15 20 9 13 6 4 2
197 198 208 205 209 224 219 208 181 181 178 190 200 210 214 221 224 243 267 242 230 227 233 234 237 241 233 225 230 227 215 188 163 199 54 31 23 12 10 15 7 4 12
194 195 198 206 210 219 212 207 198 179 182 193 241 241 208 150 123 146 210 240 250 256 239 237 240 241 248 251 228 215 217 181 175 203 52 38 29 8 9 14 10 9 12
191 198 205 217 211 217 215 211 207 204 187 174 221 280 181 199 237 138 181 226 234 240 259 250 246 247 246 243 236 217 168 175 183 140 359 35 25 16 11 10 13 13 16
192 195 206 207 204 205 215 205 199 199 188 174 168 181 43 50 213 207 188 210 246 268 283 274 260 249 242 238 227 177 178 180 170 142 125 39 28 23 13 11 16 16 17
195 197 198 195 194 207 203 204 184 190 189 186 188 166 160 139 138 257 298 271 293 295 316 338 325 246 225 227 218 193 181 179 150 134 102 51 37 30 22 16 17 21 14
190 200 197 194 199 202 203 199 191 194 197 191 180 183 186 194 167 191 242 283 313 326 332 6 32 304 222 229 222 187 172 154 144 125 123 58 50 37 25 24 25 26 17
200 198 195 192 193 197 198 195 194 196 193 187 183 192 201 201 184 212 247 281 297 327 337 56 25 75 191 222 240 190 163 147 135 124 97 86 60 49 34 30 39 34 22
207 193 193 190 191 191 195 195 198 202 190 192 189 195 198 196 199 213 244 268 276 267 285 14 60 45 21 277 232 180 138 137 122 117 104 58 55 56 48 37 38 39 26
209 200 198 189 190 194 196 194 203 197 193 192 191 191 205 194 197 205 219 244 287 304 320 113 32 45 26 37 226 117 123 132 116 101 92 78 46 36 36 40 38 26 21
218 210 203 200 192 193 196 198 198 196 192 189 190 191 201 194 197 198 206 215 230 268 279 342 77 33 32 54 103 104 115 115 110 105 81 66 44 13 17 19 24 11 14
234 232 223 212 203 200 197 197 204 196 197 189 187 191 197 188 195 194 197 206 206 221 247 122 86 54 69 88 98 106 114 112 112 110 96 81 51 0 14 12 14 358 8
232 233 240 242 241 212 203 206 202 199 200 193 193 188 191 187 190 188 191 197 201 195 244 232 118 94 75 84 95 114 120 123 125 119 109 94 345 61 27 9 360 346 0
243 234 226 206 224 247 228 210 208 203 198 199 189 190 187 182 187 190 192 183 177 174 185 207 130 112 102 132 102 101 120 131 132 135 126 142 94 62 48 26 23 5 358
338 329 250 273 247 251 242 236 221 206 195 189 186 190 186 186 184 184 184 175 164 168 166 190 162 137 127 137 134 142 154 169 157 154 153 92 81 47 33 27 30 24 5
43 18 357 322 300 269 262 240 224 228 218 188 189 182 188 185 179 181 173 175 167 173 176 184 189 158 164 157 194 176 165 157 156 150 158 161 117 42 344 7 38 37 28
315 62 67 9 300 272 260 243 247 213 253 249 167 189 184 175 179 180 190 176 180 177 190 215 220 254 196 193 162 180 147 162 204 182 166 159 116 167 340 7 56 43 35
261 259 264 168 317 324 262 227 221 203 192 201 177 177 178 186 183 191 192 185 194 210 210 197 219 239 250 201 182 180 190 188 184 147 152 163 173 178 186 75 75 59 45
262 264 248 238 238 315 303 255 234 217 211 193 187 187 183 182 190 191 192 199 209 206 210 212 222 254 242 213 190 200 177 132 85 150 171 162 176 173 167 179 98 73 52
250 238 237 237 225 226 173 244 251 213 213 198 193 192 199 195 183 186 188 195 201 211 184 215 238 52 343 349 169 144 153 160 151 184 195 140 167 151 179 166 136 97 72
271 260 252 244 231 225 193 188 231 249 206 199 180 191 199 220 154 180 202 198 206 207 199 189 210 202 207 179 177 196 177 185 149 174 189 174 154 159 166 213 227 185 153